Location: Beneden-Haastrecht
(52.0012°N, 4.7557°E)
Time: 03:27:01
(UTC+00:00)

NOSS 2-2 (E) - Pass Details

Date: 24 October 2020
Orbit: 468 x 1739 km, 63.3° (Epoch: 26 October)

Event Time Altitude Azimuth Distance (km) Brightness Sun altitude
Rises 17:41:47 0° 314° (NW) 3,083 7.8 -12.1°
Reaches altitude 10° 17:43:49 10° 314° (NW) 2,300 7.1 -12.4°
Maximum altitude 17:49:09 90° 249° (WSW) 954 4.5 -13.2°
Drops below altitude 10° 17:56:37 10° 137° (SE) 3,174 6.8 -14.3°
Enters shadow 17:59:08 - 137° (SE) 4,084 7.3 -14.7°
